{"data":{"norad_id":64724,"intl_designator":"2025-144A","name":"STARLINK-34393","alt_names":[],"object_type":"PAYLOAD","status":"ACTIVE","operator":null,"country":"US","launch_date":"2025-07-02","launch_site_code":"AFETR","launch_vehicle":null,"mission":null,"orbit_class":"UNKNOWN","rcs_meters":null,"size_class":null,"mass_kg":null,"dimensions":null,"purposes":["comms"],"wikipedia_slug":null,"has_3d_model":false,"image_url":null,"decayed_at":null,"tle_current":{"epoch":"2026-05-25T02:16:57.339840Z","epoch_age_seconds":77558,"freshness":"FRESH","line1":"1 64724U 25144A   26145.09510810  .00013046  00000+0  45170-3 0  9994","line2":"2 64724  53.1587 185.8816 0001483  85.8528 274.2642 15.30207809 51427","mean_motion":15.30207809,"eccentricity":0.0001483,"inclination_deg":53.1587,"raan_deg":185.8816,"arg_perigee_deg":85.8528,"mean_anomaly_deg":274.2642,"bstar":0.0004517,"rev_number":5142,"period_min":94.104865465368,"perigee_km":474.17540459796,"apogee_km":476.20810190617,"semimajor_km":6853.3287532521,"source":"CELESTRAK","updated_at":"2026-05-25T13:38:20.518762Z"}}}